sat.trackr.live / text

‹ back to catalog

STARLINK-30321

NORAD 57679 · 2023-124S

PAYLOAD ACTIVE UNKNOWN

§ Identity

Operator
Country
US
Launch date
2023-08-22
Launch site
AFWTR
Launch vehicle
Mass (kg)
RCS (m²)

Purposes: comms

External: N2YO · Heavens-Above · Gunter

§ Orbital elements

Epoch: 2026-05-24T14:27:08.201664Z

Period
94.11 min
Inclination
53.1599°
Eccentricity
0.0001180
Mean motion
15.30193925 rev/d
Perigee alt
474.4 km
Apogee alt
476.0 km
Semi-major
6,853.4 km
B*
2.6563e-5
RAAN
213.9891°
Arg perigee
78.8928°
Mean anomaly
281.2205°
Rev number
15,519

§ Raw data

STARLINK-303211 57679U 23124S   26144.60217826  .00000428  00000+0  26563-4 0  99942 57679  53.1599 213.9891 0001180  78.8928 281.2205 15.30193925155192

JSON: /api/v1/satellites/57679 · /tle

For live sub-satellite position, see the globe view (requires WebGL).

§ Visibility from observer

Set your observer location to see the next 7 days of passes ≥ 10°. The values pass through the URL so the page stays shareable.

No JS? Fill the form by hand. The geolocation button needs JavaScript.